TimeEST,TemperatureF,Dew PointF,Humidity,Sea Level PressureIn,VisibilityMPH,Wind Direction,Wind SpeedMPH,Gust SpeedMPH,PrecipitationIn,Events,Conditions,WindDirDegrees,DateUTC
12:31 AM,46.4,44.6,93,30.06,10.0,Calm,Calm,-,N/A,,Overcast,0,2012-12-08 05:31:00
12:52 AM,46.0,45.0,96,30.07,8.0,Calm,Calm,-,0.00,Rain,Light Rain,0,2012-12-08 05:52:00
1:20 AM,46.4,44.6,93,30.06,5.0,Calm,Calm,-,0.01,Rain,Light Rain,0,2012-12-08 06:20:00
1:52 AM,46.0,45.0,96,30.06,5.0,Calm,Calm,-,0.01,Rain,Light Rain,0,2012-12-08 06:52:00
2:13 AM,46.4,46.4,100,30.05,4.0,Calm,Calm,-,0.00,,Overcast,0,2012-12-08 07:13:00
2:23 AM,46.4,46.4,100,30.05,3.0,Calm,Calm,-,0.01,Rain,Light Rain,0,2012-12-08 07:23:00
2:52 AM,46.9,46.0,97,30.05,3.0,Calm,Calm,-,0.02,Rain,Light Rain,0,2012-12-08 07:52:00
3:52 AM,46.9,46.0,97,30.04,4.0,Calm,Calm,-,0.03,Rain,Light Rain,0,2012-12-08 08:52:00
4:52 AM,48.0,46.9,96,30.03,5.0,Calm,Calm,-,0.07,Rain,Light Rain,0,2012-12-08 09:52:00
5:52 AM,48.0,46.9,96,30.03,5.0,Calm,Calm,-,0.07,Rain,Light Rain,0,2012-12-08 10:52:00
6:52 AM,48.9,48.0,97,30.02,4.0,SE,3.5,-,0.11,Rain,Rain,140,2012-12-08 11:52:00
7:52 AM,50.0,48.9,96,29.99,4.0,ESE,6.9,-,0.10,Rain,Light Rain,120,2012-12-08 12:52:00
8:52 AM,50.0,48.9,96,29.96,7.0,ESE,6.9,-,0.01,,Overcast,120,2012-12-08 13:52:00
9:52 AM,51.1,51.1,100,29.94,3.0,SE,5.8,-,0.00,,Overcast,140,2012-12-08 14:52:00
9:59 AM,51.8,51.8,100,29.92,2.0,SE,8.1,-,0.01,Rain,Light Rain,130,2012-12-08 14:59:00
10:14 AM,53.6,51.8,94,29.91,4.0,SSE,9.2,17.3,0.01,,Overcast,150,2012-12-08 15:14:00
10:27 AM,53.6,53.6,100,29.91,2.0,SSE,10.4,19.6,0.01,,Overcast,160,2012-12-08 15:27:00
10:52 AM,54.0,53.1,97,29.89,5.0,South,8.1,21.9,0.01,,Overcast,170,2012-12-08 15:52:00
11:52 AM,55.0,55.0,100,29.86,10.0,South,8.1,20.7,N/A,,Overcast,190,2012-12-08 16:52:00
12:08 PM,55.4,53.6,94,29.85,10.0,Variable,5.8,-,N/A,,Overcast,0,2012-12-08 17:08:00
12:41 PM,53.6,51.8,94,29.84,10.0,SSW,5.8,-,N/A,,Overcast,210,2012-12-08 17:41:00
12:52 PM,53.1,52.0,96,29.84,10.0,Variable,5.8,-,N/A,,Overcast,0,2012-12-08 17:52:00
1:28 PM,53.6,51.8,94,29.83,2.0,SW,6.9,-,N/A,,Overcast,230,2012-12-08 18:28:00
1:35 PM,53.6,51.8,94,29.83,1.2,SW,4.6,-,N/A,,Overcast,230,2012-12-08 18:35:00
1:52 PM,53.1,52.0,96,29.84,1.0,SW,5.8,-,N/A,,Overcast,230,2012-12-08 18:52:00
2:06 PM,53.6,51.8,94,29.84,2.5,WSW,5.8,-,N/A,,Overcast,240,2012-12-08 19:06:00
2:25 PM,53.6,51.8,94,29.84,1.5,NW,5.8,-,N/A,,Overcast,320,2012-12-08 19:25:00
2:38 PM,51.8,51.8,100,29.85,2.5,NW,5.8,-,N/A,,Overcast,320,2012-12-08 19:38:00
2:48 PM,51.8,50.0,94,29.85,4.0,WNW,5.8,-,N/A,,Overcast,300,2012-12-08 19:48:00
2:52 PM,51.1,50.0,96,29.86,4.0,NW,4.6,-,N/A,,Overcast,310,2012-12-08 19:52:00
3:52 PM,48.9,48.0,97,29.87,4.0,NW,5.8,-,N/A,,Overcast,310,2012-12-08 20:52:00
4:15 PM,48.2,48.2,100,29.87,2.5,NW,3.5,-,N/A,,Overcast,310,2012-12-08 21:15:00
4:27 PM,48.2,46.4,93,29.88,4.0,NW,3.5,-,N/A,,Overcast,310,2012-12-08 21:27:00
4:52 PM,48.0,46.9,96,29.88,6.0,Variable,3.5,-,N/A,,Overcast,0,2012-12-08 21:52:00
5:29 PM,48.2,46.4,93,29.89,2.5,Variable,3.5,-,N/A,,Overcast,0,2012-12-08 22:29:00
5:39 PM,46.4,46.4,100,29.90,1.0,Variable,4.6,-,N/A,,Overcast,0,2012-12-08 22:39:00
5:52 PM,46.9,46.0,97,29.90,1.5,Variable,3.5,-,N/A,,Overcast,0,2012-12-08 22:52:00
6:03 PM,46.4,46.4,100,29.90,2.0,WNW,5.8,-,N/A,,Overcast,300,2012-12-08 23:03:00
7:29 PM,46.4,46.4,100,29.92,6.0,Calm,Calm,-,N/A,,Overcast,0,2012-12-09 00:29:00
7:44 PM,46.4,44.6,93,29.92,8.0,Calm,Calm,-,N/A,,Overcast,0,2012-12-09 00:44:00
7:52 PM,46.9,45.0,93,29.93,8.0,West,3.5,-,N/A,,Overcast,280,2012-12-09 00:52:00
8:22 PM,46.4,46.4,100,29.93,5.0,Calm,Calm,-,N/A,,Overcast,0,2012-12-09 01:22:00
8:40 PM,46.4,46.4,100,29.93,6.0,Calm,Calm,-,N/A,,Overcast,0,2012-12-09 01:40:00
8:52 PM,46.9,46.0,97,29.94,7.0,Variable,3.5,-,N/A,,Overcast,0,2012-12-09 01:52:00
9:27 PM,46.4,46.4,100,29.94,6.0,Calm,Calm,-,N/A,,Overcast,0,2012-12-09 02:27:00
9:39 PM,46.4,46.4,100,29.94,7.0,Calm,Calm,-,N/A,,Overcast,0,2012-12-09 02:39:00
9:52 PM,46.9,46.9,100,29.95,7.0,Calm,Calm,-,N/A,,Overcast,0,2012-12-09 02:52:00
10:04 PM,46.4,46.4,100,29.95,6.0,Calm,Calm,-,N/A,,Overcast,0,2012-12-09 03:04:00
10:37 PM,46.4,46.4,100,29.95,5.0,SSW,3.5,-,N/A,,Overcast,210,2012-12-09 03:37:00
10:52 PM,46.9,46.0,97,29.97,5.0,WSW,3.5,-,N/A,,Overcast,240,2012-12-09 03:52:00